{"data":{"norad_id":63077,"intl_designator":"2025-037A","name":"STARLINK-32839","alt_names":[],"object_type":"PAYLOAD","status":"ACTIVE","operator":null,"country":"US","launch_date":"2025-02-23","launch_site_code":"AFWTR","launch_vehicle":null,"mission":null,"orbit_class":"UNKNOWN","rcs_meters":null,"size_class":null,"mass_kg":null,"dimensions":null,"purposes":["comms"],"wikipedia_slug":null,"has_3d_model":false,"image_url":null,"decayed_at":null,"tle_current":{"epoch":"2026-09-21T22:02:41.230464Z","epoch_age_seconds":39762,"freshness":"FRESH","line1":"1 63077U 25037A   26264.91853276  .00087523  00000+0  29390-2 0  9990","line2":"2 63077  70.0029 217.3676 0002888 175.6977 184.4224 15.30396565 88041","mean_motion":15.30396565,"eccentricity":0.0002888,"inclination_deg":70.0029,"raan_deg":217.3676,"arg_perigee_deg":175.6977,"mean_anomaly_deg":184.4224,"bstar":0.002939,"rev_number":8804,"period_min":94.09325876264,"perigee_km":472.6491459834,"apogee_km":476.60730317712,"semimajor_km":6852.7652245803,"source":"CELESTRAK","updated_at":"2026-09-22T09:00:49.756464Z"}}}